Regional Weather Roundup
Issued by NWS

Home | Current Version | Previous Version | Text Only | Print | Product List | Glossary On
Versions: 1 2 3 4 5 6 7 8 9 10 11 12 13 14 15 16 17 18 19 20 21 22 23 24 25 26 27 28 29 30 31 32 33 34 35 36 37 38 39 40 41 42 43 44 45 46 47 48 49 50
715
ASUS42 KKEY 291810
RWRKEY

FLORIDA REGIONAL WEATHER ROUNDUP FOR THE FLORIDA KEYS
NATIONAL WEATHER SERVICE KEY WEST FLORIDA
200 PM EDT MON MAY 29 2017

...SOUTH FLORIDA AND THE KEYS...

CITY           SKY/WX    TMP DP  RH WIND       PRES   REMARKS
FORT MYERS     PTSUNNY   94  69  44 NW8       30.07F HX  99
SW REGIONAL AP MOSUNNY   92  65  40 CALM      30.08F HX  94
NAPLES         SUNNY     91  69  48 W9        30.07F HX  96
MIAMI          PTSUNNY   91  72  53 SE7       30.07F HX  98
WEST KENDALL   MOSUNNY  N/A N/A N/A SE7       30.07F
HOMESTEAD      PTSUNNY   90  78  68 E8        30.07F HX 105
MARATHON       SUNNY     90  76  63 S6        30.08F HX 101
BOCA CHICA NAS SUNNY     87  75  67 SE7       30.09F HX  96
KEY WEST INTL  MOSUNNY   87  74  64 SE9       30.09F HX  95

...INTERNATIONAL WEATHER...

CITY           SKY/WX    TMP DP  RH WIND       PRES   REMARKS
NASSAU BAHAMAS MOSUNNY   93  66  40 SE7       30.10F HX  96
CANCUN MEXICO  PTSUNNY   88  75  66 E16       30.03S HX  97
COZUMEL MEXICO MOSUNNY   90  72  55 SE16      30.00S HX  96

ADJACENT COASTAL WATERS...

STATION/POSITION TIME  SKY/WX   TEMP    WIND        PRES    WAVE
                                AIR SEA DIR/SP/G            HT/PER
                 (UTC)          (F)     (DEG/KT/KT) (MB)    (FT/S)
PULASKI SHOAL LI 1800            83     120/  8/  8 1018.9F
SAND KEY         1750            82     140/  8/ 10 1019.6F
LONG KEY         1700            85 90  160/  6/  7 1019.1F
MOLASSES REEF    1700            83 83  190/  7/  8 1019.6S
FOWEY ROCKS      1700            82 82   50/  5/  6 1019.8F
Buoy 42097       1730                                 N/A     1/ 8

$$




USA.gov is the U.S. government's official web portal to all federal, state and local government web resources and services.